Temperature
25 25 24 24 24 24 24 24 23 24 24 23 23 22 23 22 22 22 22 21 20 20 19 19 18 18 18 18 18 17 17 17 17 16 16 16 16 16 15 15 15 15 15 15
25 24 25 25 25 24 24 23 23 23 24 23 23 23 23 22 22 21 21 21 20 20 19 18 18 18 17 17 17 17 17 16 16 16 16 16 15 15 15 15 15 15 15 15
24 24 25 25 24 24 24 23 23 23 23 23 23 22 22 22 22 21 21 21 20 19 19 18 18 17 17 17 17 17 16 16 16 16 16 15 15 15 15 15 15 15 15 15
24 25 24 24 24 24 23 23 23 23 22 22 22 21 22 22 21 21 21 21 20 19 19 18 17 17 17 16 16 16 16 16 16 16 15 15 15 15 14 14 14 14 14 14
23 24 24 23 23 23 23 23 23 23 22 22 22 21 21 22 21 21 21 20 20 19 18 17 17 16 16 16 16 16 16 16 16 15 15 15 15 14 14 14 14 14 14 14
24 24 24 24 24 24 23 23 23 23 22 21 22 22 20 21 21 21 21 20 20 19 18 17 16 16 15 15 15 15 15 15 15 15 15 14 14 14 14 14 13 13 13 13
23 23 24 23 23 23 23 22 21 21 20 21 23 22 20 21 22 21 21 20 19 18 18 17 16 15 15 15 15 15 15 15 15 14 14 14 14 14 13 13 13 13 13 13
22 22 23 23 22 22 22 22 20 19 20 21 22 22 21 21 21 21 20 20 19 18 17 16 16 15 15 14 14 14 14 14 14 14 14 14 13 13 13 13 13 13 13 13
22 22 23 23 23 23 22 22 22 21 21 21 21 21 20 21 20 20 20 19 18 17 17 16 15 15 14 14 14 14 14 14 14 14 13 13 13 13 13 13 13 13 12 12
22 21 22 23 22 22 22 22 22 21 20 19 20 21 20 19 19 19 19 18 18 17 16 15 15 14 14 14 13 13 13 13 13 13 13 13 13 13 13 13 13 12 12 12
22 21 21 22 21 21 21 21 21 21 21 20 19 20 21 19 19 19 19 18 17 16 15 15 14 14 14 13 13 13 13 13 13 13 13 13 12 12 12 12 12 12 12 12
21 21 20 21 22 22 22 21 21 19 19 20 19 19 21 20 19 19 18 17 16 16 15 14 14 14 13 13 12 12 12 12 12 12 12 12 12 12 12 12 12 12 11 11
20 20 19 20 20 21 21 21 21 20 19 19 19 19 20 19 19 18 18 17 16 15 14 14 13 13 12 12 12 12 12 12 12 12 12 12 12 12 11 11 11 11 11 11
19 19 19 19 20 20 20 20 20 20 18 19 19 19 19 19 18 18 17 16 16 15 14 13 13 12 12 12 11 11 11 11 11 11 11 11 11 11 11 11 11 11 11 10
19 19 20 20 20 20 20 20 20 19 19 18 19 19 18 18 17 17 17 16 15 15 14 13 12 12 12 11 11 11 11 11 11 11 11 11 11 10 10 10 10 10 10 10
19 19 19 19 20 20 20 20 20 19 19 19 19 18 18 18 17 17 16 16 15 14 14 13 12 12 11 11 11 10 10 10 10 10 10 10 10 10 10 10 10 10 10 9
19 19 18 18 19 19 18 19 19 19 19 19 17 17 18 17 17 16 15 15 14 14 13 12 12 11 11 10 10 10 10 10 9 9 9 9 9 9 9 9 9 9 9 9
18 18 17 17 18 17 18 19 19 19 18 18 18 17 17 16 16 15 14 14 14 13 12 12 11 11 11 10 10 9 9 9 9 9 9 9 9 9 8 8 9 9 9 8
19 17 17 17 16 17 18 18 18 17 17 18 17 16 16 16 15 14 14 13 13 12 12 11 11 10 10 10 9 9 9 8 8 8 8 8 8 8 8 8 8 8 8 8
18 18 17 16 16 16 17 18 18 17 16 16 16 16 15 15 13 13 13 12 12 11 11 11 10 10 10 9 9 9 8 8 8 8 7 8 8 7 7 8 7 7 7 7
16 16 16 15 16 16 16 17 17 15 15 16 15 15 14 14 13 12 12 11 11 11 10 10 10 9 9 9 9 8 8 7 7 7 7 7 7 7 7 7 7 7 7 6
16 16 16 16 15 15 16 16 15 15 15 15 14 14 13 13 12 12 11 10 10 10 9 9 9 9 8 8 8 8 7 7 7 7 7 7 7 7 6 6 6 6 6 6
17 16 16 16 15 15 15 15 15 14 14 14 13 13 12 12 11 11 10 10 9 9 9 8 8 8 8 8 7 7 7 7 6 6 6 6 6 6 6 6 6 6 6 5
16 16 16 15 15 15 15 14 14 13 13 13 12 12 11 11 10 10 9 9 9 8 8 8 7 7 7 7 7 7 6 6 6 6 6 6 6 6 6 5 5 5 5 5
15 15 15 14 15 15 14 13 13 12 12 11 11 11 10 10 9 9 9 8 8 8 7 7 7 7 7 7 6 6 6 6 6 5 5 5 5 5 5 5 5 5 5 4
15 14 14 13 14 13 13 12 12 11 11 11 10 10 9 9 9 8 8 8 8 7 7 7 7 6 6 6 6 6 5 5 5 5 5 5 5 5 4 4 4 4 4 4
Wind_Speed
4 3 1 1 2 3 3 4 2 1 1 1 2 3 4 5 4 3 4 4 5 4 4 4 4 4 4 3 4 5 4 3 3 3 2 2 2 2 3 3 5 6 6 6
3 3 2 2 3 3 3 5 2 1 0 2 3 4 4 6 6 3 3 3 4 4 5 5 4 3 4 3 3 4 4 3 3 2 2 2 2 2 3 3 4 5 6 6
2 1 2 3 2 2 3 3 3 3 4 5 5 5 5 6 5 4 2 3 4 4 5 4 4 4 4 3 2 2 3 4 3 3 3 3 3 2 3 3 3 4 6 6
2 1 1 2 2 3 3 3 4 5 5 4 5 4 4 6 6 4 3 2 4 4 5 5 4 4 3 3 2 2 3 3 3 4 3 4 3 2 2 1 2 3 5 5
2 1 2 3 2 3 3 4 6 8 8 7 8 5 3 5 6 5 5 4 3 5 5 6 5 4 4 3 3 2 2 3 3 3 3 3 2 1 1 1 2 2 3 4
4 2 2 3 3 3 4 6 8 9 7 7 8 5 2 2 4 4 4 4 4 5 6 5 6 5 4 4 3 2 3 2 2 2 2 2 2 2 1 1 1 1 1 2
6 5 3 2 3 3 4 5 3 4 5 4 2 3 2 3 4 4 4 4 5 5 5 5 5 5 4 3 2 1 2 1 1 1 1 1 2 2 2 1 1 1 1 1
5 5 5 3 3 3 5 5 3 4 4 3 3 2 4 6 6 6 5 4 5 5 5 5 5 4 4 3 2 1 1 1 1 1 1 0 1 1 1 1 1 1 1 0
4 2 4 3 3 4 5 5 5 6 8 5 3 2 4 5 5 5 4 5 4 5 5 4 4 4 3 3 1 0 1 1 1 1 1 1 0 0 0 0 1 1 0 1
5 3 3 2 4 5 5 6 5 4 4 4 4 3 2 5 5 5 4 4 4 5 4 4 4 3 3 2 1 1 1 1 1 1 1 1 1 0 0 1 1 1 0 1
7 5 4 5 6 6 5 5 5 5 5 4 4 0 3 5 4 3 3 4 4 5 4 3 2 2 3 3 2 2 1 1 1 1 1 1 1 1 1 1 1 1 1 1
4 4 6 7 4 3 5 5 6 4 6 6 5 1 5 6 5 4 3 4 5 4 4 3 2 3 3 3 3 2 2 2 1 0 1 1 1 1 1 0 0 0 1 1
4 4 5 4 3 4 6 6 6 6 6 7 6 2 5 6 4 3 2 3 4 4 3 3 3 2 3 3 2 2 2 2 1 1 0 1 1 1 1 0 0 0 0 1
3 6 7 7 5 4 6 7 7 7 7 8 8 4 2 1 2 2 2 2 3 3 2 2 2 2 2 2 2 2 2 2 2 1 0 0 0 1 1 0 0 0 0 1
4 8 9 10 10 9 10 10 10 10 10 9 9 6 3 0 1 1 1 2 2 2 2 2 1 1 2 2 2 3 3 2 1 1 1 1 1 1 1 0 1 1 1 0
6 8 9 11 10 10 12 11 11 11 10 10 9 7 2 1 1 1 1 1 1 2 2 2 1 1 2 2 2 3 2 3 2 1 1 1 1 1 1 0 0 1 1 1
6 7 8 9 9 9 10 8 8 7 6 6 7 5 1 1 1 1 1 1 1 1 2 1 1 1 2 2 2 3 3 3 3 2 1 1 1 2 2 0 1 0 0 1
8 8 6 7 7 10 3 2 2 3 3 3 3 2 1 1 1 1 2 1 2 3 3 2 2 2 1 1 2 2 3 3 3 3 2 2 1 1 2 0 1 1 1 1
8 6 5 5 7 8 4 1 1 2 3 2 2 2 3 3 2 2 5 5 4 3 3 2 1 1 2 1 1 1 2 2 3 3 3 2 2 1 1 1 1 1 1 1
7 7 6 6 6 6 1 2 3 2 2 3 2 2 2 2 2 1 3 4 4 4 3 2 2 1 2 2 1 1 1 2 3 3 3 2 2 2 1 1 0 1 1 0
6 7 8 9 8 4 1 2 1 2 1 3 3 2 2 2 1 2 3 4 4 4 3 3 2 2 2 2 1 1 2 2 3 3 3 3 2 2 1 0 1 1 1 1
5 5 6 7 7 3 3 1 1 2 3 3 2 2 2 2 3 3 3 2 2 2 3 3 2 2 2 2 2 2 2 2 2 3 3 2 2 2 2 2 2 2 1 1
4 2 2 2 1 2 2 2 2 3 3 3 3 3 3 2 2 2 2 2 2 2 2 2 2 2 2 2 2 2 2 2 2 2 2 2 2 2 2 2 2 2 1 1
3 3 3 4 2 1 1 2 3 3 3 4 3 3 3 2 2 2 2 2 2 2 2 2 2 2 2 2 2 2 2 2 1 2 2 2 2 2 2 2 2 2 1 1
4 4 5 7 4 3 1 2 3 2 2 2 2 2 2 1 1 1 1 1 1 1 2 2 2 2 2 2 2 2 1 2 1 1 2 1 1 1 2 2 2 2 2 2
6 6 5 5 3 3 4 3 3 2 1 1 1 1 1 1 1 1 1 1 1 1 2 2 2 2 2 2 2 2 2 2 2 1 2 1 1 1 1 2 2 3 3 4
Wind_Direction
207 219 220 231 245 254 275 277 271 275 133 223 223 211 192 172 174 179 151 147 143 141 128 111 107 107 94 81 79 81 91 91 81 59 64 64 54 57 50 40 34 20 17 26
222 211 246 243 242 245 262 265 276 319 223 268 265 247 204 159 175 172 173 145 140 134 126 123 122 108 104 88 73 93 89 94 92 73 75 88 67 56 59 30 24 17 21 22
227 88 292 267 253 269 268 286 287 285 282 255 254 246 200 168 160 150 144 137 132 124 123 128 124 112 107 100 88 75 92 98 103 96 68 67 61 51 47 30 19 10 23 25
262 187 273 275 287 293 282 308 286 264 259 258 247 263 202 168 158 157 157 142 129 127 118 112 99 89 89 94 92 79 76 84 92 107 94 93 83 66 37 39 26 9 22 24
256 261 257 270 292 298 306 301 275 269 264 267 246 246 221 164 167 166 162 147 130 121 113 112 107 100 86 65 63 67 71 73 78 90 108 104 91 81 55 56 53 33 16 17
245 234 255 285 280 271 284 272 262 252 252 255 242 237 212 175 167 156 141 135 126 112 110 106 103 97 85 70 51 51 60 65 76 93 117 128 122 119 93 61 72 50 26 3
220 203 199 267 269 234 258 277 271 232 225 241 206 215 179 113 101 107 112 112 107 103 105 103 99 103 99 86 63 74 76 66 96 119 131 182 161 149 133 97 76 56 54 8
243 214 182 203 260 281 261 265 281 289 274 286 262 219 125 110 98 98 108 113 106 102 96 99 104 100 103 100 79 62 95 99 116 171 171 141 71 138 139 137 114 100 76 357
291 243 160 191 247 270 264 260 272 283 286 278 232 151 126 130 115 106 105 103 101 103 100 98 97 87 87 99 90 88 149 128 76 36 73 135 155 171 147 143 127 127 100 32
303 284 214 198 231 240 267 290 281 270 283 279 258 223 158 147 138 126 121 112 105 97 94 93 93 88 77 81 101 59 79 89 76 66 27 29 35 34 92 81 72 88 84 60
287 267 226 217 231 241 237 257 272 281 277 278 284 352 95 127 121 111 111 110 102 99 90 69 74 77 77 71 64 58 39 57 54 49 32 48 41 345 249 131 81 55 42 70
285 284 248 234 232 250 249 258 266 272 281 285 284 280 103 111 100 96 99 101 92 89 93 95 82 80 71 65 55 39 31 37 47 352 10 43 36 335 287 125 110 76 34 38
316 273 261 220 200 206 236 240 263 275 277 272 270 217 129 118 99 91 90 103 111 103 96 85 74 65 63 59 47 35 27 30 9 334 348 29 11 334 271 215 61 84 68 38
296 268 264 273 289 271 253 257 263 267 265 271 274 271 219 103 75 72 99 113 115 115 98 76 69 60 50 41 34 24 17 17 6 354 10 359 342 326 315 182 101 206 72 74
254 266 267 275 283 280 273 267 262 259 265 272 281 286 288 89 76 21 80 124 124 114 107 82 62 44 50 33 19 11 6 1 353 3 21 348 334 325 333 8 32 41 53 35
249 269 276 275 272 270 267 262 259 260 265 270 278 282 301 82 89 34 2 91 141 122 98 82 64 35 41 33 16 357 356 348 349 6 340 353 355 353 346 286 85 33 43 46
245 266 278 275 274 273 260 253 248 250 264 272 275 288 333 320 294 359 357 11 119 91 90 66 23 13 22 19 12 350 351 358 349 338 342 355 10 356 315 246 130 128 95 83
253 259 266 274 273 259 257 320 265 250 279 291 301 344 339 319 332 58 45 45 58 65 68 50 20 8 16 28 9 353 353 354 345 341 345 341 346 335 318 22 138 136 85 92
243 249 258 260 265 266 255 243 248 256 266 344 27 28 10 14 8 64 48 48 51 58 57 46 26 4 359 1 16 359 342 346 347 343 340 355 348 321 315 292 195 143 102 82
226 236 247 253 259 263 311 65 38 321 248 35 52 53 23 19 327 6 37 41 36 41 43 37 27 24 9 354 6 8 350 358 343 339 343 354 345 316 312 284 242 79 93 98
214 227 236 248 254 257 49 33 17 252 332 30 22 23 360 335 8 58 50 41 36 33 27 17 15 32 16 356 358 21 21 351 341 353 3 4 359 356 356 104 71 66 65 65
229 232 235 242 247 242 90 62 22 0 11 25 33 30 7 18 63 64 55 39 42 23 17 10 7 21 16 8 11 28 18 359 3 5 4 4 7 6 32 82 90 82 75 96
241 267 271 267 274 71 98 56 25 10 2 15 26 26 29 44 67 62 53 32 25 19 8 9 359 356 6 18 19 11 7 16 14 12 5 8 11 22 46 86 95 97 87 87
274 306 288 281 261 313 7 46 43 21 7 19 35 32 41 39 37 37 29 15 14 7 2 355 333 324 334 9 21 11 8 15 18 8 3 16 25 25 30 68 96 96 92 93
288 287 278 275 283 308 355 7 2 12 28 24 37 36 31 33 16 352 338 344 357 351 344 326 316 327 345 1 15 13 14 2 356 3 358 10 31 43 36 54 67 87 88 93
263 262 255 265 284 291 299 327 334 337 354 338 344 347 334 270 267 307 315 319 326 313 312 315 326 329 335 348 353 9 14 359 345 356 357 11 61 58 59 67 53 53 69 68
Height
1496 1499 1502 1500 1499 1500 1501 1505 1507 1505 1501 1506 1509 1510 1509 1510 1512 1514 1515 1517 1519 1521 1523 1524 1525 1526 1527 1528 1528 1528 1529 1530 1530 1531 1531 1532 1532 1532 1532 1532 1532 1532 1532 1532
1498 1501 1498 1497 1497 1499 1502 1506 1507 1505 1502 1506 1508 1507 1506 1508 1510 1512 1514 1515 1518 1519 1521 1523 1524 1525 1526 1527 1527 1528 1528 1529 1529 1530 1531 1531 1532 1532 1532 1532 1532 1532 1531 1531
1499 1501 1497 1497 1498 1501 1503 1506 1507 1508 1506 1504 1507 1510 1506 1506 1508 1511 1513 1514 1516 1518 1520 1522 1523 1524 1525 1525 1526 1527 1528 1528 1529 1529 1530 1530 1530 1531 1531 1531 1531 1531 1531 1531
1497 1497 1498 1499 1501 1502 1507 1502 1503 1506 1510 1511 1508 1519 1507 1503 1507 1509 1512 1513 1515 1517 1519 1520 1522 1523 1524 1524 1525 1526 1527 1527 1528 1528 1528 1529 1529 1529 1530 1530 1530 1530 1530 1530
1500 1498 1500 1502 1502 1502 1504 1502 1503 1504 1507 1510 1505 1513 1509 1501 1507 1508 1510 1512 1514 1516 1518 1520 1521 1522 1522 1523 1524 1525 1525 1526 1526 1526 1527 1527 1528 1528 1529 1529 1529 1529 1529 1529
1498 1498 1499 1500 1500 1501 1501 1503 1502 1501 1506 1517 1504 1508 1513 1505 1504 1506 1508 1511 1513 1515 1517 1519 1520 1521 1521 1522 1522 1523 1524 1524 1524 1525 1526 1526 1527 1527 1527 1528 1527 1527 1527 1527
1500 1499 1499 1501 1502 1501 1503 1510 1518 1518 1519 1513 1497 1504 1510 1501 1500 1503 1507 1510 1512 1515 1517 1518 1519 1520 1521 1521 1521 1522 1522 1523 1523 1523 1524 1525 1525 1526 1526 1526 1526 1526 1526 1526
1504 1505 1500 1500 1503 1506 1504 1508 1522 1528 1521 1511 1500 1504 1505 1499 1501 1504 1507 1510 1512 1514 1516 1517 1519 1519 1520 1520 1520 1520 1521 1521 1522 1522 1522 1523 1523 1524 1525 1525 1525 1525 1525 1525
1503 1504 1498 1499 1500 1502 1506 1506 1504 1513 1510 1514 1507 1503 1503 1500 1502 1505 1507 1509 1511 1513 1515 1517 1518 1519 1519 1519 1519 1519 1519 1520 1520 1521 1521 1521 1521 1522 1523 1523 1523 1523 1523 1524
1501 1507 1500 1499 1501 1501 1503 1503 1505 1511 1519 1522 1510 1506 1508 1505 1505 1506 1507 1509 1511 1513 1515 1516 1517 1517 1518 1518 1518 1518 1518 1519 1519 1520 1520 1520 1520 1520 1521 1521 1521 1521 1522 1522
1501 1505 1504 1502 1503 1503 1504 1506 1505 1507 1508 1518 1520 1514 1498 1501 1503 1505 1507 1509 1511 1513 1514 1516 1517 1517 1517 1517 1517 1517 1517 1517 1517 1517 1518 1518 1518 1518 1518 1518 1519 1519 1520 1520
1502 1504 1505 1501 1497 1497 1499 1503 1506 1516 1513 1508 1514 1515 1497 1499 1502 1506 1508 1509 1511 1513 1515 1515 1516 1516 1516 1515 1515 1515 1515 1515 1515 1515 1515 1515 1515 1516 1515 1515 1516 1517 1518 1518
1505 1507 1511 1508 1506 1502 1501 1500 1502 1506 1509 1511 1515 1514 1498 1500 1503 1506 1508 1509 1511 1512 1514 1515 1515 1515 1514 1514 1514 1514 1514 1513 1513 1513 1513 1513 1513 1513 1513 1514 1514 1515 1515 1515
1508 1507 1510 1513 1506 1501 1502 1501 1501 1506 1513 1511 1506 1506 1502 1501 1503 1505 1508 1509 1510 1512 1513 1514 1514 1514 1513 1513 1513 1512 1512 1511 1511 1511 1511 1511 1511 1510 1510 1511 1511 1512 1512 1512
1507 1507 1502 1500 1497 1497 1499 1500 1500 1502 1503 1507 1503 1502 1501 1501 1503 1505 1507 1508 1509 1511 1512 1513 1513 1513 1512 1512 1511 1511 1510 1510 1509 1509 1508 1508 1508 1508 1508 1508 1509 1509 1509 1510
1504 1504 1502 1501 1497 1496 1497 1496 1497 1498 1498 1499 1499 1501 1499 1501 1503 1505 1506 1507 1508 1509 1511 1512 1512 1512 1511 1511 1510 1509 1509 1508 1507 1506 1506 1506 1506 1506 1505 1505 1506 1506 1506 1507
1502 1504 1507 1505 1497 1497 1500 1493 1493 1494 1494 1497 1501 1500 1498 1500 1502 1504 1505 1506 1507 1509 1510 1510 1511 1511 1510 1509 1509 1508 1507 1506 1505 1505 1504 1503 1503 1503 1503 1503 1503 1503 1503 1504
1501 1503 1505 1504 1503 1510 1498 1489 1489 1492 1494 1494 1495 1497 1498 1500 1502 1503 1505 1505 1506 1507 1508 1509 1509 1509 1509 1508 1507 1506 1506 1504 1503 1502 1502 1501 1501 1500 1500 1501 1500 1500 1501 1501
1497 1502 1505 1505 1506 1500 1494 1490 1490 1493 1495 1494 1496 1498 1499 1501 1501 1504 1504 1505 1506 1506 1507 1507 1507 1507 1506 1506 1505 1504 1503 1502 1502 1500 1500 1499 1498 1498 1498 1498 1498 1498 1498 1498
1495 1498 1504 1504 1508 1507 1496 1490 1490 1494 1498 1496 1496 1498 1500 1501 1504 1505 1505 1505 1505 1505 1505 1505 1505 1505 1504 1503 1503 1502 1501 1500 1499 1498 1497 1496 1496 1496 1496 1496 1496 1496 1496 1495
1498 1499 1502 1503 1504 1497 1494 1492 1492 1502 1502 1497 1497 1498 1499 1500 1502 1504 1504 1504 1504 1504 1504 1504 1503 1502 1502 1501 1501 1500 1499 1498 1497 1496 1495 1494 1493 1493 1493 1493 1494 1494 1493 1493
1495 1498 1498 1498 1501 1501 1494 1493 1496 1499 1496 1496 1497 1498 1499 1500 1500 1501 1502 1503 1503 1503 1502 1502 1501 1501 1500 1499 1499 1498 1497 1496 1495 1494 1493 1492 1491 1491 1491 1491 1491 1491 1491 1491
1490 1492 1493 1495 1498 1495 1494 1495 1496 1496 1497 1497 1497 1498 1499 1499 1500 1500 1501 1502 1502 1501 1501 1500 1500 1499 1498 1498 1497 1496 1495 1494 1493 1492 1491 1490 1489 1489 1489 1489 1489 1488 1489 1488
1489 1490 1491 1492 1491 1493 1494 1494 1495 1496 1496 1497 1497 1498 1498 1499 1499 1499 1499 1500 1500 1500 1500 1499 1498 1497 1496 1496 1495 1494 1493 1492 1491 1489 1489 1488 1488 1487 1487 1487 1487 1487 1486 1486
1491 1491 1491 1491 1491 1492 1493 1494 1495 1495 1495 1496 1496 1497 1497 1498 1498 1498 1498 1498 1498 1498 1498 1497 1496 1495 1495 1494 1493 1492 1491 1490 1489 1488 1487 1486 1486 1486 1486 1485 1485 1485 1485 1485
1490 1491 1492 1491 1491 1492 1493 1493 1494 1494 1494 1494 1495 1495 1496 1496 1496 1496 1496 1496 1496 1496 1495 1495 1494 1494 1493 1492 1491 1490 1489 1488 1487 1486 1485 1485 1485 1484 1484 1483 1484 1484 1484 1485